Miscellaneous Local Product
Issued by NWS North Platte, NE

Home | Current Version | Previous Version | Text Only | Print | Product List | Glossary On
Versions: 1 2 3 4 5 6 7 8 9 10 11 12 13 14 15 16 17 18 19 20 21 22 23 24 25 26 27 28 29 30 31 32 33 34 35 36 37 38 39 40 41 42 43 44 45 46 47 48 49 50
000
AXUS43 KLBF 240510
MISLBF


WESTERN AND NORTH CENTRAL NEBRASKA HOURLY WEATHER ROUNDUP
NATIONAL WEATHER SERVICE NORTH PLATTE NE
1200 AM CDT TUE APR 24 2018

NOTE: "FAIR" INDICATES FEW OR NO CLOUDS BELOW 12,000 FEET WITH NO
SIGNIFICANT WEATHER AND/OR OBSTRUCTIONS TO VISIBILITY.

NOTE: STATIONS NOT REPORTING VARIABLES SUCH AS SKY/WEATHER OR
PRESSURE ARE PROVIDED BY RAWS AND APRS NETWORKS AND ARE NOT UNDER
NATIONAL WEATHER SERVICE QUALITY CONTROL.

...OBSERVATIONS IN AND NEAR THE EASTERN PANHANDLE OF NEBRASKA...

CITY           SKY/WX    TMP DP  RH WIND       PRES   REMARKS
PINE RIDGE     CLOUDY    40  38  93 W8        30.22R WCI  34
GORDON         CLOUDY    40  36  87 W17G24    30.19R WCI  31
CHADRON        MOCLDY    39  33  79 NW17G26   30.26R WCI  30
ALLIANCE       CLOUDY    39  37  92 NW14      30.22R WCI  31
SIDNEY         CLOUDY    41  38  89 N25G32    30.23R
CRESCENT LAKE    N/A     41  38  91 N13G23      N/A
$$

...OBSERVATIONS IN NORTHERN NEBRASKA AND FAR SOUTHERN SOUTH DAKOTA...

CITY           SKY/WX    TMP DP  RH WIND       PRES   REMARKS
WINNER         MOCLDY    58  38  47 SE15      30.07F
VALENTINE      CLOUDY    57  48  72 NW10      30.11R
AINSWORTH      CLOUDY    55  42  62 S8        30.10S
O`NEILL        CLOUDY    59  38  45 SE7       30.11F
THEDFORD       MOCLDY    55  41  60 S9        30.13R
BROKEN BOW     PTCLDY    44  38  79 CALM      30.12R
ORD            CLOUDY    47  39  74 CALM      30.11R
ALBION         CLOUDY    56  41  57 CALM      30.11S
VALENTINE NWR    N/A     49  41  73 S5          N/A
HALSEY           N/A     52  39  62 SE5         N/A
BUTTE            N/A     55  40  58 E9          N/A
CHAMBERS         N/A     52  38  58 CALM        N/A
EWING            N/A     57  38  49 CALM        N/A
$$

...OBSERVATIONS IN SOUTHWEST NEBRASKA AND FAR NORTHEAST COLORADO...

CITY           SKY/WX    TMP DP  RH WIND       PRES   REMARKS
WRAY           LGT RAIN  54  45  71 NW7       30.16R
HOLYOKE        LGT RAIN  46  45  93 NE22G32   30.15F
IMPERIAL       CLOUDY    54  43  66 S5        30.13R
OGALLALA       RAIN      49  46  90 NW23      30.18R
NORTH PLATTE   MOCLDY    47  40  76 SE5       30.12R
MCCOOK         MOCLDY    54  39  57 SE13      30.09R
LEXINGTON      CLEAR     47  39  72 E3        30.12R
STAPLETON        N/A     49  40  71 CALM        N/A
GOTHENBURG       N/A     53  37  55 CALM        N/A
CALLAWAY         N/A     49  40  72 SE7         N/A
$$

...OBSERVATIONS IN CENTRAL LINCOLN COUNTY AREA...

CITY           SKY/WX    TMP DP  RH WIND       PRES   REMARKS
N.P. AIRPORT   MOCLDY    47  40  76 SE5       30.12R
N.P. DOWNTOWN    N/A     52  42  68 CALM        N/A
N.P. SOUTHEAST   N/A     50  40  69 CALM        N/A
N.P. HILLCREST   N/A     53  42  65 E6          N/A
$$

...OBSERVATIONS ACROSS THE ROCKIES AND WESTERN HIGH PLAINS...

CITY           SKY/WX    TMP DP  RH WIND       PRES   REMARKS
RAPID CITY     CLOUDY    38  31  76 NW38G48   30.21R WCI  24
SCOTTSBLUFF    CLOUDY    40  36  86 NW21G29   30.28R WCI  30
CHEYENNE       CLOUDY    33  30  88 MISG      30.25R
DENVER         CLOUDY    41  35  79 N31G43    30.20R
BERTHOUD PASS  FAIR      28  19  69 S7        30.39F WCI  21
MONARCH PASS   PTCLDY    36  19  51 W20       30.48S WCI  25
ASPEN          CLOUDY    52  26  36 N15G23    30.24R
STEAMBOAT      MOCLDY    45  35  67 NW5       30.19R
LARAMIE        CLOUDY    33  33 100 NE7       30.26R WCI  27
CASPER         CLOUDY    33  27  78 N17       30.39R WCI  22
$$

...OBSERVATIONS ACROSS THE NORTHERN PLAINS...

CITY           SKY/WX    TMP DP  RH WIND       PRES   REMARKS
BISMARCK       LGT RAIN  45  41  86 N20       30.27R
FARGO          CLOUDY    50  40  68 NE3       30.19R
PIERRE         LGT RAIN  57  42  57 SE10      30.06R
SIOUX FALLS    MOCLDY    48  39  71 CALM      30.14S
$$

...OBSERVATIONS ACROSS THE CENTRAL AND SOUTHERN PLAINS...

CITY           SKY/WX    TMP DP  RH WIND       PRES   REMARKS
OMAHA          CLOUDY    54  31  41 CALM      30.10R
GRAND ISLAND   PTCLDY    56  37  49 S3        30.11R
KANSAS CITY    CLEAR     58  31  35 NE3       30.06R
WICHITA        PTCLDY    57  45  64 NW6       30.05F
DODGE CITY     CLEAR     50  41  71 SE7       30.07S
OKLAHOMA CITY  PTCLDY    57  46  66 N3        30.06S
DALLAS         CLEAR     65  51  60 NW7       30.03R
AMARILLO       CLEAR     55  42  61 SE15      30.06S
$$




USA.gov is the U.S. government's official web portal to all federal, state and local government web resources and services.